Weather History for Russell, KS

Change the Weather History Date:

Monday, February 18, 2013

  Actual Average Record
Temperature  
Mean Temperature 36 °F -  
Max Temperature 48 °F 44 °F 72 °F (2014)
Min Temperature 24 °F 21 °F -11 °F (1979)
Degree Days  
Heating Degree Days 29    
Moisture  
Dew Point 21 °F    
Average Humidity 48    
Maximum Humidity 67    
Minimum Humidity 28    
Precipitation  
Precipitation 0.00 in - - ()
Sea Level Pressure  
Sea Level Pressure 29.83 in    
Wind  
Wind Speed 19 mph (NNW)    
Max Wind Speed 31 mph    
Max Gust Speed 43 mph    
Visibility 10 miles    
Events      
Averages and records for this station are not official NWS values.
T = Trace of Precipitation, MM = Missing Value Source: NWS Daily Summary

Daily Weather History Graph

Daily Weather History Graph

Search for Another Location

Airport:

Trip Planner

Search our weather history database for the weather conditions in past years. The results will help you decide how hot, cold, wet, or windy it might be!

Date:

Astronomy

Feb. 18, 2013 Rise Set
Actual Time 7:22 AM CST 6:16 PM CST
Civil Twilight 6:55 AM CST 6:43 PM CST
Nautical Twilight 6:24 AM CST 7:14 PM CST
Astronomical Twilight 5:53 AM CST 7:45 PM CST
Moon 12:05 PM CST (2/18) 2:01 AM CST (2/18)
Length of Visible Light 11h 48m
Length of Day
10h 54m
First Quarter, 58% of the Moon is Illuminated
Feb 18
First Quarter
Feb 25
Full
Mar 4
Last Quarter
Mar 11
New
Mar 19
First Quarter

Hourly Weather History & Observations

Time (CST) Temp. Windchill Dew Point Humidity Pressure Visibility Wind Dir Wind Speed Gust Speed Precip Events Conditions
12:53 AM 46.0 °F 39.3 °F 27.0 °F 47% 29.39 in 10.0 mi South 16.1 mph - N/A   Clear
1:53 AM 46.0 °F 39.0 °F 26.1 °F 46% 29.39 in 10.0 mi South 17.3 mph - N/A   Clear
2:53 AM 44.1 °F 40.8 °F 25.0 °F 47% 29.41 in 10.0 mi North 5.8 mph - N/A   Clear
3:53 AM 42.1 °F 32.3 °F 26.1 °F 53% 29.46 in 10.0 mi North 24.2 mph 32.2 mph N/A   Clear
4:53 AM 41.0 °F 30.2 °F 30.0 °F 65% 29.53 in 10.0 mi North 27.6 mph 40.3 mph N/A   Clear
6:53 AM 39.0 °F 29.3 °F 28.9 °F 67% 29.67 in 10.0 mi NNW 19.6 mph - N/A   Mostly Cloudy
7:53 AM 37.4 °F 26.1 °F 26.6 °F 65% 29.71 in 10.0 mi NNW 24.2 mph 29.9 mph N/A   Partly Cloudy
8:53 AM 39.9 °F 28.4 °F 27.0 °F 60% 29.79 in 10.0 mi NNW 29.9 mph 38.0 mph N/A   Overcast
9:53 AM 41.0 °F 29.7 °F 25.0 °F 53% 29.82 in 10.0 mi NNW 31.1 mph 42.6 mph N/A   Mostly Cloudy
10:53 AM 42.1 °F 31.9 °F 25.0 °F 51% 29.86 in 10.0 mi North 26.5 mph 35.7 mph N/A   Scattered Clouds
11:53 AM 46.9 °F - 23.0 °F 39% 29.88 in 10.0 mi NNW 28.8 mph 39.1 mph N/A   Scattered Clouds
12:53 PM 46.9 °F - 21.0 °F 36% 29.88 in 10.0 mi North 25.3 mph 41.4 mph N/A   Scattered Clouds
1:53 PM 48.9 °F - 19.0 °F 31% 29.89 in 10.0 mi NNW 28.8 mph 36.8 mph N/A   Partly Cloudy
2:53 PM 48.9 °F - 19.9 °F 32% 29.90 in 10.0 mi NNW 25.3 mph 32.2 mph N/A   Clear
3:53 PM 48.0 °F - 16.0 °F 28% 29.93 in 10.0 mi NNW 29.9 mph 35.7 mph N/A   Clear
4:53 PM 46.0 °F 37.8 °F 15.1 °F 29% 29.96 in 10.0 mi NNW 23.0 mph 31.1 mph N/A   Clear
5:53 PM 43.0 °F 35.1 °F 16.0 °F 34% 30.01 in 10.0 mi North 17.3 mph 25.3 mph N/A   Clear
6:53 PM 36.0 °F 28.5 °F 15.1 °F 43% 30.05 in 10.0 mi North 10.4 mph - N/A   Clear
7:53 PM 33.1 °F 26.1 °F 15.1 °F 48% 30.10 in 10.0 mi North 8.1 mph - N/A   Clear
8:53 PM 33.1 °F 27.7 °F 16.0 °F 50% 30.11 in 10.0 mi North 5.8 mph - N/A   Clear
9:53 PM 30.9 °F 25.2 °F 16.0 °F 54% 30.13 in 10.0 mi North 5.8 mph - N/A   Clear
10:53 PM 24.1 °F 18.2 °F 14.0 °F 65% 30.16 in 10.0 mi SSW 4.6 mph - N/A   Clear
11:53 PM 24.1 °F - 14.0 °F 65% 30.17 in 10.0 mi Calm Calm - N/A   Clear